This is the latest recevied weather packets stored in our database for station/object KC7RJK-2. If no packets are shown the sender has not sent any weather packets the latest 10 day(s).
| Time | Temp. | Humidity | Pressure | Rain* | Wind** | Luminosity | Snow |
|---|---|---|---|---|---|---|---|
| 1777498808 | 18.89° C | 55% | 1021.9 hPa | 0 mm | - | - | - |
| 1777498211 | 18.33° C | 55% | 1021.8 hPa | 0 mm | - | - | - |
| 1777497610 | 18.89° C | 56% | 1021.9 hPa | 0 mm | - | - | - |
| 1777497010 | 18.89° C | 56% | 1021.9 hPa | 0 mm | - | - | - |
| 1777496411 | 18.33° C | 58% | 1022 hPa | 0 mm | - | - | - |
| 1777495810 | 18.33° C | 56% | 1022 hPa | 0 mm | - | - | - |
| 1777495210 | 17.78° C | 56% | 1022.1 hPa | 0 mm | - | - | - |
| 1777494609 | 17.78° C | 60% | 1022.2 hPa | 0 mm | - | - | - |
| 1777494009 | 17.22° C | 56% | 1022.3 hPa | 0 mm | - | - | - |
| 1777493408 | 17.22° C | 57% | 1022.4 hPa | 0 mm | - | - | - |
| 1777492809 | 17.22° C | 58% | 1022.5 hPa | 0 mm | - | - | - |
| 1777492210 | 17.22° C | 58% | 1022.6 hPa | 0 mm | - | - | - |
| 1777491611 | 17.22° C | 58% | 1022.8 hPa | 0 mm | - | - | - |
| 1777491013 | 16.67° C | 56% | 1022.8 hPa | 0 mm | - | - | - |
| 1777490410 | 16.67° C | 61% | 1023 hPa | 0 mm | - | - | - |
| 1777489809 | 16.67° C | 62% | 1023.1 hPa | 0 mm | - | - | - |
| 1777489210 | 16.11° C | 66% | 1023.3 hPa | 0 mm | - | - | - |
| 1777488609 | 15.56° C | 67% | 1023.3 hPa | 0 mm | - | - | - |
| 1777488008 | 14.44° C | 68% | 1023.4 hPa | 0 mm | - | - | - |
| 1777487411 | 15° C | 71% | 1023.5 hPa | 0 mm | - | - | - |
| 1777486810 | 14.44° C | 70% | 1023.6 hPa | 0 mm | - | - | - |
| 1777486209 | 13.89° C | 72% | 1023.7 hPa | 0 mm | - | - | - |
| 1777485609 | 13.33° C | 74% | 1023.8 hPa | 0 mm | - | - | - |
| 1777485009 | 12.78° C | 75% | 1023.9 hPa | 0 mm | - | - | - |
| 1777484409 | 12.78° C | 75% | 1024 hPa | 0 mm | - | - | - |
* Rain latest hour (hover to see other rain measurements)
** Current wind speed in m/s (hover to see current wind gust speed)